KHOT

Memorial Field Airport

Airport
ICAO code
KHOT
Summary
ICAO Region
NAM
ICAO Territory
Location

Hot Springs, Arkansas,

Elevation
540 ft
Coordinates
34° 28' 44" N , 93° 5' 46" W
KCC
Airport WX
Cumulonimbus
Metar
KHOT 181600Z AUTO 20005KT 8SM SCT018 BKN024 OVC031 23/19 A2996 RMK AO2 T02330194

Description

Airport serving Hot Springs, Arkansas, located 3 nm southwest of the city's business district.

Climatology

Humid “subtropical” climate (Köppen climate classification Cfa) - characterized by hot, humid summers and cool winters. Significant amounts of precipitation occur in all seasons in most areas. Winter rainfall (and sometimes snowfall) is associated with large storms that the westerlies steer from west to east. Most summer rainfall occurs during thunderstorms and occasional tropical storms (hurricanes).

Airport map

Aerial View

SKYbrary Partners:

Safety knowledge contributed by: